Location: Alta
(39.2070°N, 120.8111°W)
Time: 01:10:07
(UTC+00:00)

ITAMSAT 1 - Pass Details

Date: 11 April 2023
Orbit: 782 x 797 km, 98.8° (Epoch: 29 May)

Event Time Altitude Azimuth Distance (km) Brightness Sun altitude
Rises 05:08:30 0° 213° (SSW) 3,281 10.8 -27.5°
Reaches altitude 10° 05:12:01 10° 238° (WSW) 2,360 10.3 -28.0°
Maximum altitude 05:14:39 14° 269° (W) 2,101 10.4 -28.4°
Drops below altitude 10° 05:17:17 10° 300° (WNW) 2,371 11.0 -28.8°
Sets 05:20:52 0° 325° (NW) 3,307 12.0 -29.3°
